[[{"header":{"parameterUnit":"m.s-1","parameterCategory":1,"la1":30.2991,"la2":30.254,"lo1":-89.0895,"lo2":-89.0444,"dy":0.0017,"dx":0.0017,"nx":28,"ny":28,"refTime":"2025-06-01T21:00:00:Z","depth":0,"parameterNumber":2,"parameterNumberName":"U-component_of_WINDS"},"data":[0,0,0,0,0,0,0,0,0,0,0,0,0,0,0,0,0,0,0,0,0,0,0,0,0,0,0,0,0,0,0,0,0,0,0,0,0,0,0,0,0,0,0,0,0,0,0,0,0,0,0,0,0,0,0,0,0,0,-1.0173,-1.0172,0,-1.0161,-1.0161,-1.0161,-1.0126,-1.0125,-1.0124,-1.0124,-1.0113,-1.0113,-1.0114,0,0,0,0,0,0,0,0,0,0,0,0,0,-1.0166,-1.0166,-1.0173,-1.0172,-1.0172,-1.0161,-1.0161,-1.0161,-1.0126,-1.0125,-1.0124,-1.0123,-1.0113,-1.0113,-1.0114,0,0,0,0,0,0,0,0,0,0,0,0,0,-1.0163,-1.0166,-1.0173,-1.0154,-1.0152,-1.0161,-1.0161,-1.0161,-1.0126,-1.0125,-1.0124,-1.0123,-1.0113,-1.0113,-1.0114,-1.0141,0,0,-1.0116,-1.0116,0,0,0,0,0,0,0,0,-1.0163,-1.0163,-1.0156,-1.0155,-1.0153,-1.0144,-1.0154,-1.0154,-1.0126,-1.0136,-1.0123,-1.0122,-1.0124,-1.0124,-1.0124,-1.0141,-1.014,-1.0116,-1.0116,-1.0117,-1.0117,0,0,0,0,0,0,0,-1.0163,-1.0163,-1.0168,-1.0156,-1.0154,-1.0146,-1.0144,-1.0154,-1.0137,-1.0135,-1.0132,-1.0131,-1.0123,-1.0124,-1.0124,-1.014,-1.0116,-1.0116,-1.0117,-1.0117,-1.0178,-1.0179,0,0,0,0,0,0,-1.0166,-1.0164,-1.0168,-1.0168,-1.0155,-1.0147,-1.0145,-1.0148,-1.0136,-1.0134,-1.0132,-1.013,-1.0123,-1.0123,-1.0123,-1.0154,-1.0117,-1.0117,-1.0118,-1.0177,-1.0179,-1.018,0,0,0,0,0,0,-1.0166,-1.0167,-1.0169,-1.0165,-1.0165,-1.0148,-1.0152,-1.0148,-1.0149,-1.0135,-1.0131,-1.0136,-1.0122,-1.0122,-1.0137,-1.0153,-1.0117,-1.0118,-1.0176,-1.0178,-1.0179,-1.0217,0,0,0,0,0,0,-1.0166,-1.0167,-1.0177,-1.0166,-1.0165,-1.0183,-1.0153,-1.0149,-1.015,-1.0146,-1.0137,-1.0135,-1.0121,-1.0136,-1.0137,-1.0154,-1.0119,-1.0174,-1.0176,-1.0179,-1.0214,-1.022,-1.0225,0,0,0,0,0,-1.0166,-1.0188,-1.0178,-1.0178,-1.0177,-1.0184,-1.0183,-1.0167,-1.0151,-1.0161,-1.0152,-1.0135,-1.0151,-1.0138,-1.0139,-1.0156,-1.0173,-1.0176,-1.0178,-1.0212,-1.0219,-1.0225,0,0,0,0,0,0,-1.0202,-1.0186,-1.0174,-1.0194,-1.019,-1.0178,-1.019,-1.0175,-1.0176,-1.0173,-1.0153,-1.0151,-1.0169,-1.0164,-1.0149,-1.0182,-1.0159,-1.0163,-1.0184,-1.0191,-1.0196,-1.0197,-1.0119,0,0,0,0,0,-1.0213,-1.0219,-1.0205,-1.0223,-1.0222,-1.0206,-1.0208,-1.0196,-1.0192,-1.019,-1.0182,-1.0179,-1.0183,-1.0187,-1.019,-1.0213,-1.0211,-1.0226,-1.0231,-1.0235,-1.0238,-1.025,-1.0257,-1.0189,-1.0189,-1.0189,0,0,-1.0234,-1.0226,-1.0231,-1.023,-1.0226,-1.0233,-1.0205,-1.0214,-1.0219,-1.0192,-1.0205,-1.0199,-1.0194,-1.0213,-1.0221,-1.021,-1.0257,-1.0239,-1.0242,-1.0243,-1.0254,-1.026,-1.0266,-1.0191,-1.0191,-1.019,0,0,-1.0277,-1.0271,-1.0286,-1.0282,-1.0276,-1.0266,-1.0269,-1.0259,-1.0254,-1.0267,-1.0246,-1.0252,-1.026,-1.0258,-1.0257,-1.0299,-1.0284,-1.0301,-1.0329,-1.0341,-1.0346,-1.0351,-1.0366,-1.0372,-1.0304,-1.0304,-1.0304,0,-1.0304,-1.0314,-1.0295,-1.0306,-1.0306,-1.0281,-1.0296,-1.0293,-1.0289,-1.029,-1.0277,-1.0286,-1.0281,-1.03,-1.031,-1.031,-1.0314,-1.0302,-1.0347,-1.0351,-1.0355,-1.037,-1.0375,-1.0306,-1.0306,-1.0306,-1.0305,0,-1.0348,-1.0355,-1.0368,-1.0364,-1.0365,-1.0378,-1.0362,-1.0366,-1.0354,-1.0345,-1.0358,-1.0351,-1.0353,-1.0356,-1.0344,-1.0373,-1.0366,-1.035,-1.0327,-1.0364,-1.0377,-1.0383,-1.0309,-1.0308,-1.0308,-1.0307,0,0,-1.0413,-1.0399,-1.0404,-1.0402,-1.0393,-1.0399,-1.041,-1.0411,-1.0415,-1.0413,-1.0423,-1.043,-1.0415,-1.0415,-1.0403,-1.0413,-1.0447,-1.0396,-1.0396,-1.0406,-1.0479,-1.0491,-1.0497,-1.0437,-1.0438,-1.0438,-1.0479,0,-1.0454,-1.0472,-1.0456,-1.0478,-1.0485,-1.0461,-1.0471,-1.0467,-1.0459,-1.0464,-1.0455,-1.0461,-1.0441,-1.0441,-1.045,-1.0441,-1.0462,-1.0438,-1.0446,-1.0446,-1.0448,-1.0504,-1.0517,-1.0555,-1.0484,-1.0485,-1.0485,0,-1.0503,-1.0503,-1.0526,-1.0516,-1.0518,-1.0527,-1.0527,-1.0532,-1.0527,-1.052,-1.052,-1.0505,-1.0516,-1.0494,-1.0509,-1.0493,-1.0495,-1.0492,-1.0493,-1.0493,-1.0468,-1.0506,-1.0567,-1.0573,-1.0493,-1.0493,-1.0492,0,-1.0549,-1.0554,-1.0568,-1.0567,-1.0556,-1.0563,-1.0559,-1.0553,-1.0555,-1.0555,-1.0556,-1.0557,-1.0558,-1.056,-1.0546,-1.0531,-1.0563,-1.0539,-1.0558,-1.0559,-1.0566,-1.0566,-1.0629,-1.0567,-1.0567,-1.0567,-1.0567,0,-1.0596,-1.0611,-1.0589,-1.0597,-1.0613,-1.0595,-1.0611,-1.0605,-1.06,-1.0607,-1.0587,-1.0594,-1.0575,-1.058,-1.0569,-1.0584,-1.0584,-1.058,-1.0576,-1.0581,-1.0582,-1.0583,-1.058,-1.0569,-1.0568,-1.0568,-1.0568,0,-1.0649,-1.0635,-1.0649,-1.0637,-1.0635,-1.0647,-1.0637,-1.0645,-1.0636,-1.0645,-1.0646,-1.0632,-1.0637,-1.0623,-1.0626,-1.0619,-1.064,-1.0632,-1.0642,-1.0639,-1.0659,-1.0658,-1.0725,-1.0733,-1.0666,-1.0667,-1.0667,0,-1.068,-1.0691,-1.068,-1.0684,-1.068,-1.0686,-1.0688,-1.067,-1.0673,-1.0668,-1.0677,-1.068,-1.0682,-1.0692,-1.0682,-1.0685,-1.0677,-1.0701,-1.0678,-1.0682,-1.0678,-1.0678,-1.0679,-1.0706,-1.0706,-1.0707,-1.0708,0,-1.0737,-1.0729,-1.0732,-1.0733,-1.0735,-1.0735,-1.0733,-1.0737,-1.0718,-1.0722,-1.0728,-1.0729,-1.0733,-1.0737,-1.0737,-1.0733,-1.0718,-1.0715,-1.072,-1.0725,-1.073,-1.0728,-1.0655,-1.0714,-1.0713,-1.0713,-1.0712,-1.0712,-1.078,-1.0789,-1.0782,-1.0786,-1.0783,-1.0782,-1.0789,-1.078,-1.0784,-1.0785,-1.0775,-1.0782,-1.0778,-1.0776,-1.0774,-1.078,-1.0769,-1.0776,-1.0777,-1.0779,-1.0783,-1.0729,-1.078,-1.078,-1.0779,-1.0779,-1.0779,0,-1.0836,-1.083,-1.0834,-1.0832,-1.0836,-1.082,-1.0818,-1.0822,-1.0828,-1.0825,-1.0827,-1.0834,-1.0837,-1.0828,-1.083,-1.0837,-1.083,-1.0838,-1.0838,-1.0837,-1.0792,-1.0788,-1.0844,-1.0844,-1.0844,-1.0844,-1.0844,-1.0844,-1.0865,-1.0878,-1.087,-1.0882,-1.0877,-1.0884,-1.0884,-1.0883,-1.088,-1.0888,-1.0891,-1.0884,-1.0879,-1.0881,-1.0884,-1.0881,-1.0883,-1.0894,-1.0888,-1.0846,-1.084,-1.0834,-1.083,-1.0894,-1.0894,-1.0933,-1.0933,-1.0933]},{"header":{"parameterUnit":"m.s-1","parameterCategory":1,"la1":30.2991,"la2":30.254,"lo1":-89.0895,"lo2":-89.0444,"dy":0.0017,"dx":0.0017,"nx":28,"ny":28,"refTime":"2025-06-01T21:00:00:Z","depth":0,"parameterNumber":3,"parameterNumberName":"V-component_of_WINDS"},"data":[0,0,0,0,0,0,0,0,0,0,0,0,0,0,0,0,0,0,0,0,0,0,0,0,0,0,0,0,0,0,0,0,0,0,0,0,0,0,0,0,0,0,0,0,0,0,0,0,0,0,0,0,0,0,0,0,0,0,-0.1672,-0.1672,0,-0.1652,-0.1652,-0.1652,-0.1614,-0.1613,-0.1613,-0.1612,-0.1592,-0.1592,-0.1593,0,0,0,0,0,0,0,0,0,0,0,0,0,-0.1678,-0.1678,-0.1672,-0.1672,-0.1672,-0.1652,-0.1652,-0.1652,-0.1614,-0.1613,-0.1612,-0.1612,-0.1592,-0.1592,-0.1593,0,0,0,0,0,0,0,0,0,0,0,0,0,-0.1669,-0.1678,-0.1672,-0.165,-0.1648,-0.1652,-0.1652,-0.1652,-0.1614,-0.1613,-0.1612,-0.1611,-0.1592,-0.1592,-0.1593,-0.1616,0,0,-0.1593,-0.1593,0,0,0,0,0,0,0,0,-0.1669,-0.1669,-0.1654,-0.1652,-0.165,-0.1634,-0.1647,-0.164,-0.1615,-0.1627,-0.1612,-0.1611,-0.1607,-0.1606,-0.1605,-0.1615,-0.1614,-0.1593,-0.1594,-0.1594,-0.1594,0,0,0,0,0,0,0,-0.167,-0.1669,-0.1664,-0.1654,-0.1651,-0.1642,-0.1639,-0.1645,-0.1624,-0.1626,-0.1623,-0.1621,-0.1606,-0.1605,-0.1604,-0.1614,-0.1593,-0.1594,-0.1594,-0.1594,-0.1643,-0.1644,0,0,0,0,0,0,-0.1674,-0.167,-0.1665,-0.1664,-0.1657,-0.1643,-0.164,-0.164,-0.1624,-0.162,-0.1622,-0.162,-0.1605,-0.1604,-0.1603,-0.163,-0.1594,-0.1594,-0.1594,-0.1642,-0.1643,-0.1645,0,0,0,0,0,0,-0.1674,-0.1674,-0.1666,-0.1666,-0.1664,-0.1644,-0.1645,-0.1641,-0.1639,-0.1621,-0.1617,-0.1625,-0.1604,-0.1603,-0.1613,-0.1629,-0.1594,-0.1594,-0.1641,-0.1642,-0.1644,-0.1683,0,0,0,0,0,0,-0.1674,-0.1674,-0.1682,-0.1666,-0.1664,-0.1676,-0.1646,-0.1641,-0.164,-0.1636,-0.1622,-0.1619,-0.1603,-0.1613,-0.1614,-0.1628,-0.1594,-0.1639,-0.1641,-0.1643,-0.168,-0.1686,-0.1691,0,0,0,0,0,-0.1675,-0.1694,-0.1683,-0.1683,-0.1675,-0.1677,-0.1675,-0.1657,-0.1641,-0.165,-0.1638,-0.1619,-0.1627,-0.1614,-0.1615,-0.163,-0.1638,-0.1641,-0.1643,-0.1678,-0.1685,-0.169,0,0,0,0,0,0,-0.1713,-0.1692,-0.1679,-0.1694,-0.1687,-0.167,-0.168,-0.1664,-0.1662,-0.1659,-0.1636,-0.1633,-0.1646,-0.1639,-0.1625,-0.1652,-0.163,-0.1632,-0.1656,-0.1662,-0.1667,-0.1669,-0.1595,0,0,0,0,0,-0.1723,-0.1726,-0.1708,-0.1723,-0.172,-0.1701,-0.1701,-0.1687,-0.1679,-0.1676,-0.1665,-0.1659,-0.1659,-0.166,-0.166,-0.1679,-0.1676,-0.169,-0.1695,-0.1699,-0.1702,-0.1711,-0.1717,-0.1653,-0.1653,-0.1653,0,0,-0.1744,-0.1733,-0.1736,-0.173,-0.1723,-0.1727,-0.1699,-0.1704,-0.1707,-0.1677,-0.1686,-0.1678,-0.1669,-0.1684,-0.169,-0.1678,-0.1719,-0.1702,-0.1706,-0.1706,-0.1715,-0.1721,-0.1726,-0.1655,-0.1655,-0.1654,0,0,-0.1784,-0.1776,-0.1788,-0.1781,-0.1771,-0.1759,-0.1762,-0.1747,-0.174,-0.1749,-0.1727,-0.173,-0.1732,-0.1726,-0.1724,-0.1763,-0.1746,-0.1763,-0.179,-0.18,-0.1805,-0.1809,-0.1823,-0.1828,-0.1766,-0.1766,-0.1766,0,-0.1811,-0.1816,-0.1796,-0.1803,-0.1801,-0.1774,-0.1786,-0.1781,-0.1771,-0.1771,-0.1758,-0.176,-0.1752,-0.1765,-0.1775,-0.1774,-0.1776,-0.1765,-0.1806,-0.181,-0.1814,-0.1827,-0.1832,-0.1768,-0.1768,-0.1768,-0.1768,0,-0.185,-0.1854,-0.1865,-0.1856,-0.1856,-0.1865,-0.1846,-0.1848,-0.1834,-0.1823,-0.1832,-0.1822,-0.1819,-0.1822,-0.1808,-0.1833,-0.1826,-0.181,-0.1787,-0.1823,-0.1834,-0.1839,-0.1771,-0.1771,-0.177,-0.1769,0,0,-0.1914,-0.1894,-0.1898,-0.1894,-0.1881,-0.1884,-0.1892,-0.1889,-0.1891,-0.1886,-0.1893,-0.1895,-0.188,-0.1877,-0.1863,-0.1872,-0.1903,-0.1855,-0.1854,-0.1864,-0.193,-0.1942,-0.1948,-0.1892,-0.1893,-0.1894,-0.1931,0,-0.1951,-0.1963,-0.1945,-0.1962,-0.1966,-0.1941,-0.1948,-0.1941,-0.1931,-0.1933,-0.1922,-0.1924,-0.1904,-0.1902,-0.1909,-0.1898,-0.1916,-0.1895,-0.1898,-0.1898,-0.1901,-0.1954,-0.1967,-0.2002,-0.1935,-0.1936,-0.1936,0,-0.1996,-0.1992,-0.201,-0.1996,-0.1997,-0.2004,-0.2,-0.2002,-0.1993,-0.1986,-0.1983,-0.1966,-0.1974,-0.1952,-0.1962,-0.1948,-0.1948,-0.1943,-0.1944,-0.1943,-0.1919,-0.1955,-0.2013,-0.2018,-0.1943,-0.1943,-0.1942,0,-0.204,-0.204,-0.205,-0.2047,-0.2032,-0.2037,-0.2031,-0.2022,-0.2021,-0.2018,-0.2018,-0.2016,-0.2014,-0.2013,-0.1997,-0.1982,-0.2009,-0.1986,-0.2002,-0.2003,-0.2009,-0.2009,-0.2068,-0.201,-0.201,-0.201,-0.2009,0,-0.2083,-0.2094,-0.207,-0.2076,-0.2088,-0.2068,-0.208,-0.2072,-0.2064,-0.2068,-0.2047,-0.2052,-0.2029,-0.2032,-0.2019,-0.2029,-0.2029,-0.2023,-0.2019,-0.2025,-0.2025,-0.2024,-0.2021,-0.2011,-0.2011,-0.201,-0.201,0,-0.2134,-0.2118,-0.2127,-0.2112,-0.2108,-0.2118,-0.2105,-0.211,-0.2099,-0.2105,-0.2105,-0.2088,-0.2089,-0.2073,-0.2071,-0.2063,-0.2079,-0.2071,-0.2082,-0.2079,-0.2097,-0.2095,-0.2157,-0.2164,-0.2102,-0.2102,-0.2103,0,-0.2162,-0.2171,-0.2156,-0.2158,-0.2152,-0.2155,-0.2154,-0.2135,-0.2135,-0.2127,-0.2133,-0.2133,-0.2132,-0.2136,-0.2123,-0.2122,-0.2114,-0.2136,-0.2114,-0.2119,-0.2114,-0.2114,-0.2114,-0.214,-0.2141,-0.2142,-0.2142,0,-0.2215,-0.2206,-0.2206,-0.2203,-0.2203,-0.22,-0.2196,-0.2198,-0.2177,-0.2179,-0.218,-0.2179,-0.2178,-0.2178,-0.2175,-0.2168,-0.2152,-0.2149,-0.2153,-0.2158,-0.2164,-0.2161,-0.2094,-0.2148,-0.2147,-0.2147,-0.2147,-0.2146,-0.2255,-0.2261,-0.2252,-0.2253,-0.2247,-0.2244,-0.2248,-0.2237,-0.2238,-0.2235,-0.2224,-0.2227,-0.2219,-0.2213,-0.2209,-0.2211,-0.2201,-0.2206,-0.2208,-0.2209,-0.2212,-0.2164,-0.2211,-0.221,-0.221,-0.221,-0.221,0,-0.2306,-0.2298,-0.2299,-0.2294,-0.2294,-0.2279,-0.2273,-0.2275,-0.2278,-0.2272,-0.2272,-0.2274,-0.2274,-0.2261,-0.226,-0.2265,-0.2257,-0.2265,-0.2264,-0.2263,-0.2222,-0.2219,-0.2271,-0.2271,-0.2271,-0.2271,-0.2271,-0.2271,-0.2332,-0.2342,-0.2332,-0.2339,-0.2332,-0.2335,-0.2333,-0.233,-0.2325,-0.2328,-0.2328,-0.232,-0.2312,-0.231,-0.2309,-0.2306,-0.2306,-0.2317,-0.231,-0.2272,-0.2266,-0.226,-0.2257,-0.2317,-0.2317,-0.2351,-0.2352,-0.2352]}]]